| time (UTC) | temp C | wind direction | speed KPH | gust KPH | rain 1hr cm | rain 24hr cm | rain mn cm | humidity % | barometer mb |
| 20260507064805 | 16 | 220 | 11.3 | 0.0 | 0.00 | 0.00 | 0.00 | 94 | 1015.0 |
| 20260507063305 | 16 | 220 | 11.3 | 0.0 | 0.00 | 0.00 | 0.00 | 94 | 1015.0 |
| 20260507061817 | 17 | 230 | 11.3 | 0.0 | 0.00 | 0.00 | 0.00 | 83 | 1014.0 |
| 20260507060305 | 17 | 230 | 11.3 | 0.0 | 0.00 | 0.00 | 0.00 | 83 | 1014.0 |
| 20260507054805 | 17 | 210 | 8.0 | 0.0 | 0.00 | 0.00 | 0.00 | 73 | 1014.0 |
| 20260507053312 | 17 | 210 | 8.0 | 0.0 | 0.00 | 0.00 | 0.00 | 73 | 1014.0 |
| 20260507051805 | 15 | 250 | 8.0 | 0.0 | 0.00 | 0.00 | 0.00 | 82 | 1013.0 |
| 20260507050305 | 15 | 250 | 8.0 | 0.0 | 0.00 | 0.00 | 0.00 | 82 | 1013.0 |
| 20260507044805 | 13 | 200 | 8.0 | 0.0 | 0.00 | 0.00 | 0.00 | 88 | 1013.0 |
| 20260507043305 | 13 | 200 | 8.0 | 0.0 | 0.00 | 0.00 | 0.00 | 88 | 1013.0 |
| 20260507041805 | 15 | 190 | 9.7 | 0.0 | 0.00 | 0.00 | 0.00 | 77 | 1013.0 |
| 20260507040305 | 15 | 190 | 9.7 | 0.0 | 0.00 | 0.00 | 0.00 | 77 | 1013.0 |
| 20260507034805 | 13 | 150 | 8.0 | 0.0 | 0.00 | 0.00 | 0.00 | 82 | 1012.0 |
| 20260507033304 | 13 | 150 | 8.0 | 0.0 | 0.00 | 0.00 | 0.00 | 82 | 1012.0 |
| 20260507031805 | 13 | 110 | 11.3 | 0.0 | 0.00 | 0.00 | 0.00 | 77 | 1012.0 |
| 20260507030305 | 13 | 110 | 11.3 | 0.0 | 0.00 | 0.00 | 0.00 | 77 | 1012.0 |
| 20260507024805 | 13 | 100 | 11.3 | 0.0 | 0.00 | 0.00 | 0.00 | 77 | 1012.0 |
| 20260507023304 | 13 | 100 | 11.3 | 0.0 | 0.00 | 0.00 | 0.00 | 77 | 1012.0 |
| 20260507021805 | 15 | 100 | 11.3 | 0.0 | 0.00 | 0.00 | 0.00 | 72 | 1011.0 |
| 20260507020305 | 15 | 100 | 11.3 | 0.0 | 0.00 | 0.00 | 0.00 | 72 | 1011.0 |
| 20260507014805 | 15 | 110 | 12.9 | 0.0 | 0.00 | 0.00 | 0.00 | 72 | 1011.0 |
| 20260507013304 | 15 | 110 | 12.9 | 0.0 | 0.00 | 0.00 | 0.00 | 72 | 1011.0 |
| 20260507011805 | 13 | 90 | 11.3 | 0.0 | 0.00 | 0.00 | 0.00 | 77 | 1011.0 |
| 20260507010305 | 13 | 90 | 11.3 | 0.0 | 0.00 | 0.00 | 0.00 | 77 | 1011.0 |
| 20260507004804 | 15 | 80 | 14.5 | 0.0 | 0.00 | 0.00 | 0.00 | 72 | 1011.0 |
| 20260507003305 | 15 | 80 | 14.5 | 0.0 | 0.00 | 0.00 | 0.00 | 72 | 1011.0 |
| 20260507001805 | 17 | 200 | 8.0 | 0.0 | 0.00 | 0.00 | 0.00 | 59 | 1011.0 |
| 20260507000306 | 17 | 200 | 8.0 | 0.0 | 0.00 | 0.00 | 0.00 | 59 | 1011.0 |
| 20260506234805 | 15 | 110 | 14.5 | 0.0 | 0.00 | 0.00 | 0.00 | 72 | 1011.0 |
| 20260506233305 | 15 | 110 | 14.5 | 0.0 | 0.00 | 0.00 | 0.00 | 72 | 1011.0 |
| 20260506231805 | 12 | 100 | 12.9 | 0.0 | 0.00 | 0.00 | 0.00 | 82 | 1011.0 |
| 20260506230305 | 12 | 100 | 12.9 | 0.0 | 0.00 | 0.00 | 0.00 | 82 | 1011.0 |
| 20260506224804 | 12 | 80 | 14.5 | 0.0 | 0.00 | 0.00 | 0.00 | 88 | 1011.0 |
| 20260506223305 | 12 | 80 | 14.5 | 0.0 | 0.00 | 0.00 | 0.00 | 88 | 1011.0 |
| 20260506221804 | 12 | 100 | 11.3 | 0.0 | 0.00 | 0.00 | 0.00 | 82 | 1011.0 |
| 20260506220304 | 12 | 100 | 11.3 | 0.0 | 0.00 | 0.00 | 0.00 | 82 | 1011.0 |
| 20260506214821 | 12 | 80 | 11.3 | 0.0 | 0.00 | 0.00 | 0.00 | 82 | 1011.0 |
| 20260506213305 | 12 | 80 | 11.3 | 0.0 | 0.00 | 0.00 | 0.00 | 82 | 1011.0 |
| 20260506211805 | 12 | 80 | 8.0 | 0.0 | 0.00 | 0.00 | 0.00 | 82 | 1011.0 |
| 20260506210304 | 12 | 80 | 8.0 | 0.0 | 0.00 | 0.00 | 0.00 | 82 | 1011.0 |
| 20260506204805 | 12 | 90 | 11.3 | 0.0 | 0.00 | 0.00 | 0.00 | 88 | 1011.0 |
| 20260506203305 | 12 | 90 | 11.3 | 0.0 | 0.00 | 0.00 | 0.00 | 88 | 1011.0 |
| 20260506201805 | 12 | 90 | 9.7 | 0.0 | 0.00 | 0.00 | 0.00 | 82 | 1011.0 |
| 20260506200305 | 12 | 90 | 9.7 | 0.0 | 0.00 | 0.00 | 0.00 | 82 | 1011.0 |
| 20260506194824 | 12 | 50 | 9.7 | 0.0 | 0.00 | 0.00 | 0.00 | 82 | 1011.0 |
| 20260506193328 | 12 | 50 | 9.7 | 0.0 | 0.00 | 0.00 | 0.00 | 82 | 1011.0 |
| 20260506191805 | 13 | 50 | 9.7 | 0.0 | 0.00 | 0.00 | 0.00 | 82 | 1011.0 |
| 20260506190305 | 13 | 50 | 9.7 | 0.0 | 0.00 | 0.00 | 0.00 | 82 | 1011.0 |
| 20260506184810 | 16 | 90 | 9.7 | 0.0 | 0.00 | 0.00 | 0.00 | 72 | 1011.0 |
| 20260506183305 | 16 | 90 | 9.7 | 0.0 | 0.00 | 0.00 | 0.00 | 72 | 1011.0 |
| 20260506181805 | 18 | 100 | 4.8 | 0.0 | 0.00 | 0.00 | 0.00 | 60 | 1010.0 |
| 20260506180305 | 18 | 100 | 4.8 | 0.0 | 0.00 | 0.00 | 0.00 | 60 | 1010.0 |
| 20260506174805 | 22 | 140 | 4.8 | 0.0 | 0.00 | 0.00 | 0.00 | 38 | 1010.0 |
| 20260506173305 | 22 | 140 | 4.8 | 0.0 | 0.00 | 0.00 | 0.00 | 38 | 1010.0 |
| 20260506171805 | 23 | 150 | 8.0 | 0.0 | 0.00 | 0.00 | 0.00 | 36 | 1010.0 |
| 20260506170304 | 23 | 150 | 8.0 | 0.0 | 0.00 | 0.00 | 0.00 | 36 | 1010.0 |
| 20260506164805 | 23 | 160 | 8.0 | 0.0 | 0.00 | 0.00 | 0.00 | 36 | 1010.0 |
| 20260506163305 | 23 | 160 | 8.0 | 0.0 | 0.00 | 0.00 | 0.00 | 36 | 1010.0 |
| 20260506161805 | 25 | 180 | 8.0 | 0.0 | 0.00 | 0.00 | 0.00 | 32 | 1011.0 |
| 20260506160305 | 25 | 180 | 8.0 | 0.0 | 0.00 | 0.00 | 0.00 | 32 | 1011.0 |
| 20260506154805 | 25 | 180 | 9.7 | 0.0 | 0.00 | 0.00 | 0.00 | 32 | 1011.0 |
| 20260506153305 | 25 | 180 | 9.7 | 0.0 | 0.00 | 0.00 | 0.00 | 32 | 1011.0 |
| 20260506151804 | 26 | 210 | 12.9 | 0.0 | 0.00 | 0.00 | 0.00 | 30 | 1011.0 |
| 20260506150311 | 26 | 210 | 12.9 | 0.0 | 0.00 | 0.00 | 0.00 | 30 | 1011.0 |
| 20260506144805 | 25 | 200 | 11.3 | 0.0 | 0.00 | 0.00 | 0.00 | 32 | 1011.0 |
| 20260506143316 | 25 | 200 | 11.3 | 0.0 | 0.00 | 0.00 | 0.00 | 32 | 1011.0 |
| 20260506141805 | 26 | 9.7 | 0.0 | 0.00 | 0.00 | 0.00 | 30 | 1011.0 | |
| 20260506140418 | 26 | 9.7 | 0.0 | 0.00 | 0.00 | 0.00 | 30 | 1011.0 | |
| 20260506134830 | 26 | 190 | 12.9 | 0.0 | 0.00 | 0.00 | 0.00 | 30 | 1012.0 |
| 20260506133305 | 26 | 190 | 12.9 | 0.0 | 0.00 | 0.00 | 0.00 | 30 | 1012.0 |
| 20260506131805 | 26 | 190 | 14.5 | 0.0 | 0.00 | 0.00 | 0.00 | 32 | 1012.0 |
| 20260506130313 | 26 | 190 | 14.5 | 0.0 | 0.00 | 0.00 | 0.00 | 32 | 1012.0 |
| 20260506124805 | 25 | 170 | 12.9 | 0.0 | 0.00 | 0.00 | 0.00 | 34 | 1012.0 |
| 20260506123305 | 25 | 170 | 12.9 | 0.0 | 0.00 | 0.00 | 0.00 | 34 | 1012.0 |
| 20260506121805 | 23 | 200 | 11.3 | 0.0 | 0.00 | 0.00 | 0.00 | 36 | 1013.0 |
| 20260506120305 | 23 | 200 | 11.3 | 0.0 | 0.00 | 0.00 | 0.00 | 36 | 1013.0 |
| 20260506114804 | 23 | 200 | 14.5 | 0.0 | 0.00 | 0.00 | 0.00 | 36 | 1013.0 |
| 20260506113305 | 23 | 200 | 14.5 | 0.0 | 0.00 | 0.00 | 0.00 | 36 | 1013.0 |
| 20260506111805 | 22 | 170 | 11.3 | 0.0 | 0.00 | 0.00 | 0.00 | 38 | 1013.0 |
| 20260506110305 | 22 | 170 | 11.3 | 0.0 | 0.00 | 0.00 | 0.00 | 38 | 1013.0 |
| 20260506104805 | 23 | 170 | 12.9 | 0.0 | 0.00 | 0.00 | 0.00 | 36 | 1013.0 |
| 20260506103305 | 23 | 170 | 12.9 | 0.0 | 0.00 | 0.00 | 0.00 | 36 | 1013.0 |
| 20260506101805 | 23 | 190 | 12.9 | 0.0 | 0.00 | 0.00 | 0.00 | 36 | 1014.0 |
| 20260506100305 | 23 | 190 | 12.9 | 0.0 | 0.00 | 0.00 | 0.00 | 36 | 1014.0 |
| 20260506094805 | 22 | 180 | 12.9 | 0.0 | 0.00 | 0.00 | 0.00 | 38 | 1014.0 |
| 20260506093305 | 22 | 180 | 12.9 | 0.0 | 0.00 | 0.00 | 0.00 | 38 | 1014.0 |
| 20260506091805 | 22 | 9.7 | 0.0 | 0.00 | 0.00 | 0.00 | 41 | 1014.0 | |
| 20260506090305 | 22 | 9.7 | 0.0 | 0.00 | 0.00 | 0.00 | 41 | 1014.0 | |
| 20260506084805 | 21 | 140 | 8.0 | 0.0 | 0.00 | 0.00 | 0.00 | 46 | 1014.0 |
| 20260506083305 | 21 | 140 | 8.0 | 0.0 | 0.00 | 0.00 | 0.00 | 46 | 1014.0 |
| 20260506081804 | 20 | 180 | 8.0 | 0.0 | 0.00 | 0.00 | 0.00 | 49 | 1014.0 |
| 20260506080305 | 20 | 180 | 8.0 | 0.0 | 0.00 | 0.00 | 0.00 | 49 | 1014.0 |
| 20260506073305 | 20 | 4.8 | 0.0 | 0.00 | 0.00 | 0.00 | 46 | 1014.0 | |
| 20260506071804 | 18 | 170 | 8.0 | 0.0 | 0.00 | 0.00 | 0.00 | 52 | 1014.0 |
| 20260506070305 | 18 | 170 | 8.0 | 0.0 | 0.00 | 0.00 | 0.00 | 52 | 1014.0 |